Louisville, KY

6:37 AM EDT on May 28, 2018 (GMT -0400)
Louisville International-Standiford

Weather History for KSDF - June, 2013

Change the Weather History Date:

Monday, June 17, 2013

  Actual Average Record
Temperature  
Mean Temperature 79 °F 76 °F  
Max Temperature 90 °F 86 °F 98 °F (1913)
Min Temperature 68 °F 67 °F 49 °F (1961)
Degree Days  
Heating Degree Days 0 0  
Month to date heating degree days 0 1  
Since 1 June heating degree days 0 1  
Since 1 July heating degree days 4115 4093  
Cooling Degree Days 14 11  
Month to date cooling degree days 160 158  
Year to date cooling degree days 388 332  
Since 1 June cooling degree days 160 158  
Growing Degree Days 29 (Base 50)    
Moisture  
Dew Point 67 °F    
Average Humidity 70    
Maximum Humidity 93    
Minimum Humidity 47    
Precipitation  
Precipitation 0.37 in 0.12 in 2.89 in (2000)
Month to date precipitation 1.04 2.28  
Year to date precipitation 20.09 22.15  
Snow  
Snow 0.00 in 0.00 in - ()
Month to date snowfall 0.0 0.0  
Since 1 June snowfall 0.0 0.0  
Since 1 July snowfall 9.8 12.5  
Snow Depth 0.00 in    
Sea Level Pressure  
Sea Level Pressure 29.95 in    
Wind  
Wind Speed 4 mph (South)    
Max Wind Speed 25 mph    
Max Gust Speed 35 mph    
Visibility 8 miles    
Events Rain , Thunderstorm    
T = Trace of Precipitation, MM = Missing Value Source: NWS Daily Summary

Daily Weather History Graph

Daily Weather History Graph

Search for Another Location

Airport or City:

Astronomy

Jun. 17, 2013 Rise Set
Actual Time 6:19 AM EDT 9:08 PM EDT
Civil Twilight 5:47 AM EDT 9:40 PM EDT
Nautical Twilight 5:08 AM EDT 10:19 PM EDT
Astronomical Twilight 4:23 AM EDT 11:04 PM EDT
Moon 2:50 PM EDT (6/17) 1:49 AM EDT (6/17)
Length of Visible Light 15h 52m
Length of Day
14h 49m
First Quarter, 60% of the Moon is Illuminated
Jun 17
First Quarter
Jun 23
Full
Jun 30
Last Quarter
Jul 8
New
Jul 15
First Quarter

Hourly Weather History & Observations

Time (EDT) Temp. Heat Index Dew Point Humidity Pressure Visibility Wind Dir Wind Speed Gust Speed Precip Events Conditions
12:56 AM 69.1 °F - 66.0 °F 90% 29.97 in 8.0 mi Calm Calm - N/A   Scattered Clouds
1:56 AM 69.1 °F - 66.9 °F 93% 29.97 in 7.0 mi Calm Calm - N/A   Overcast
2:56 AM 68.0 °F - 66.0 °F 93% 29.96 in 7.0 mi SE 4.6 mph - N/A   Clear
3:56 AM 69.1 °F - 66.0 °F 90% 29.96 in 7.0 mi ESE 3.5 mph - N/A   Mostly Cloudy
4:56 AM 70.0 °F - 66.9 °F 90% 29.96 in 8.0 mi Calm Calm - N/A   Overcast
5:56 AM 69.1 °F - 66.0 °F 90% 29.96 in 7.0 mi East 3.5 mph - N/A   Scattered Clouds
6:56 AM 69.1 °F - 66.0 °F 90% 29.97 in 7.0 mi Calm Calm - N/A   Mostly Cloudy
7:56 AM 71.1 °F - 66.9 °F 87% 29.97 in 7.0 mi Calm Calm - N/A   Mostly Cloudy
8:56 AM 73.0 °F - 68.0 °F 84% 29.98 in 7.0 mi Calm Calm - N/A   Partly Cloudy
9:56 AM 75.9 °F - 69.1 °F 79% 29.98 in 6.0 mi South 4.6 mph - N/A   Haze
10:56 AM 81.0 °F 84.1 °F 69.1 °F 67% 29.96 in 7.0 mi Calm Calm - N/A   Partly Cloudy
11:56 AM 82.9 °F 86.5 °F 69.1 °F 63% 29.96 in 8.0 mi SE 3.5 mph - N/A   Scattered Clouds
12:56 PM 84.0 °F 88.4 °F 70.0 °F 63% 29.95 in 7.0 mi Calm Calm - N/A   Mostly Cloudy
1:56 PM 87.1 °F 92.0 °F 70.0 °F 57% 29.94 in 6.0 mi SE 4.6 mph - N/A   Haze
2:56 PM 87.1 °F 90.6 °F 68.0 °F 53% 29.91 in 7.0 mi SSE 3.5 mph - N/A   Mostly Cloudy
3:56 PM 89.1 °F 92.1 °F 66.9 °F 48% 29.87 in 6.0 mi Calm Calm - N/A   Haze
4:56 PM 82.9 °F 87.0 °F 70.0 °F 65% 29.86 in 8.0 mi SW 13.8 mph - N/A   Mostly Cloudy
4:59 PM 82.4 °F 86.3 °F 69.8 °F 66% 29.87 in 8.0 mi SSW 10.4 mph - N/A Thunderstorm Thunderstorm
5:30 PM 69.8 °F - 64.4 °F 83% 29.92 in 7.0 mi ENE 19.6 mph 34.5 mph 0.00 in Rain , Thunderstorm Light Thunderstorms and Rain
5:56 PM 70.0 °F - 64.0 °F 81% 29.91 in 10.0 mi East 11.5 mph - 0.00 in   Overcast
6:56 PM 72.0 °F - 61.0 °F 68% 29.90 in 10.0 mi SSE 3.5 mph - 0.00 in   Overcast
7:44 PM 73.4 °F - 62.6 °F 69% 29.95 in 10.0 mi West 9.2 mph - 0.00 in Rain , Thunderstorm Light Thunderstorms and Rain
7:56 PM 71.1 °F - 64.0 °F 78% 29.95 in 7.0 mi West 8.1 mph - 0.00 in Rain , Thunderstorm Light Thunderstorms and Rain
8:05 PM 69.8 °F - 64.4 °F 83% 29.97 in 5.0 mi NNW 9.2 mph - 0.01 in Rain Rain
8:56 PM 70.0 °F - 64.0 °F 81% 29.97 in 5.0 mi SSW 9.2 mph - 0.13 in Rain Rain
9:56 PM 68.0 °F - 64.9 °F 90% 29.99 in 8.0 mi WSW 5.8 mph - 0.18 in Rain Light Rain
10:56 PM 68.0 °F - 64.9 °F 90% 29.94 in 10.0 mi WSW 5.8 mph - 0.06 in Rain Light Rain
11:56 PM 68.0 °F - 64.9 °F 90% 29.94 in 10.0 mi North 9.2 mph - 0.00 in   Overcast